Location: Oak Glen
(34.0495°N, 116.9470°E)
Time: 09:52:01
(UTC-07:00)

ISS - Pass Details

Date: 12 October 2017
Orbit: 401 x 408 km, 51.6° (Epoch: 19 October)

Event Time Altitude Azimuth Distance (km) Brightness Sun altitude
Rises 04:15:10 0° 324° (NW) 2,320 0.6 -20.0°
Reaches altitude 10° 04:17:30 10° 338° (NNW) 1,460 -0.7 -20.5°
Enters shadow 04:18:57 19° 359° (N) 1,037 -1.7 -20.8°
